Location: Dumpton Point
(51.3500°N, 1.4433°E)
Time: 13:19:21
(UTC+00:00)

ISS - Visible Passes

Search period start: 28 February 2021 00:00
Search period end: 10 March 2021 00:00
Orbit: 417 x 422 km, 51.6° (Epoch: 28 February)

Date Brightness Start Highest point End Pass type
(mag) Time Alt. Az. Time Alt. Az. Time Alt. Az.
28 Feb -3.7 04:39:28 64° S 04:39:36 65° SSE 04:42:56 10° E visible
01 Mar -1.5 03:53:50 25° E 03:53:50 25° E 03:55:27 10° E visible
01 Mar -3.8 05:26:47 21° W 05:28:56 84° N 05:32:18 10° E visible
02 Mar -3.9 04:41:07 71° W 04:41:27 89° N 04:44:50 10° E visible
03 Mar -1.9 03:55:27 31° E 03:55:27 31° E 03:57:21 10° E visible
03 Mar -3.8 05:28:24 18° W 05:30:49 88° N 05:34:12 10° E visible
04 Mar -0.3 03:09:46 11° E 03:09:46 11° E 03:09:52 10° E visible
04 Mar -3.8 04:42:43 57° WNW 04:43:20 83° N 04:46:43 10° E visible
05 Mar -2.3 03:57:03 37° E 03:57:03 37° E 03:59:13 10° E visible
05 Mar -3.7 05:30:01 15° W 05:32:40 68° SSW 05:36:01 10° ESE visible
06 Mar -0.5 03:11:24 12° E 03:11:24 12° E 03:11:44 10° E visible
06 Mar -3.9 04:44:21 48° W 04:45:12 82° S 04:48:34 10° ESE visible
07 Mar -2.6 03:58:44 42° E 03:58:44 42° E 04:01:04 10° E visible
07 Mar -3.1 05:31:42 13° W 05:34:22 39° SSW 05:37:32 10° SE visible
08 Mar -0.6 03:13:10 13° E 03:13:10 13° E 03:13:35 10° E visible
08 Mar -3.6 04:46:08 40° WSW 04:46:57 53° SSW 04:50:14 10° SE visible
09 Mar -2.6 04:00:38 37° SE 04:00:38 37° SE 04:02:51 10° ESE visible
09 Mar -2.2 05:33:37 11° W 05:35:55 21° SW 05:38:30 10° SSE visible
